00:32
Airports
History
Links
Donate
Help keep this website running!
PayPal
Bitcoin
Information on this page is community maintained and may be outdated or inaccurate and is intended for reference only or PC simulator navigating.
Always use approved charts for navigating.
83NE
Abbott
Abbott (83NE)
Long Pine, Nebraska, United States (69217)
4
Lat/Lng:42° 19' 30" N / 99° 45' 21.45" W
42.324999 / -99.755958
Elevation:2560'ft 780mMSL
ID / ICAO:83NE
Runways:1
Longest:(14-32) 917.3m 3,010ft Grass
Distance To
Airport ID:
Nearby VORs <50NM
Nearby NDBs
Nearby WeatherUpdated 07-27-17 00:15 GMT
Nearby weather at KANW, Ainsworth Rgnl located 21.3 nautical miles from 83NE
Altimeter: 30.11
Visibility: 10.0 statute miles
Wind: 10 knots (070°)
Temp: 27°c 81°f
Humidity: 61.6%

METAR: KANW 270015Z AUTO 07010G14KT 10SM SCT060 27/19 A3011 RMK AO2 T02700190

(Powered by phpweather)
Runway 14 / 32
Dimensions:917.3 x 45.7m 3010' x 150'ft
Surface:Grass
Runway 14 [A]Runway 32 [B]
Heading:148°TH 328°TH
Lat:
Lng:
42° 19' 42.69"N
99° 45' 31.77"W
42° 19' 17.3"N
99° 45' 11.13"W
User Notes and Comments
Google Map
Nearby Airports
(U) Rock County 19.5 NM
KRBE NNE 29°
(U) Ainsworth Rgnl 21.3 NM
KANW (WX) NW 325°
4 W Meeks Ranch 27.6 NM
63V SE 146°
(R) Higgins Bros 33.8 NM
1NE0 W 269°
4 Springview Municipal 34.8 NM
9V1 N
(R) Mc Millan Ranch 39.4 NM
4NE1 S 179°
(U) Stuart-atkinson Muni 40.1 NM
8V2 ENE 65°
VFR Chart
Flight Planning at SkyVector.com